Location: Ellerstadt
(49.4644°N, 8.2615°E)
Time: 21:08:16
(UTC+00:00)

Vanguard 1 - Pass Details

Date: 19 June 2021
Orbit: 651 x 3832 km, 34.2° (Epoch: 27 July)

Event Time Altitude Azimuth Distance (km) Brightness Sun altitude
Rises 21:47:02 0° 243° (WSW) 7,969 14.7 -13.7°
Reaches altitude 10° 21:52:58 10° 238° (WSW) 6,883 14.3 -14.1°
Maximum altitude 22:13:02 46° 175° (S) 3,713 12.5 -15.2°
Drops below altitude 10° 22:26:02 10° 109° (ESE) 4,607 13.2 -15.8°
Sets 22:29:05 0° 103° (ESE) 5,250 13.5 -15.9°
